Location: Aalen
(48.8330°N, 10.1000°E)
Time: 22:32:54
(UTC+02:00)

Transit 2A - Pass Details

Date: 03 August 2021
Orbit: 594 x 964 km, 66.7° (Epoch: 27 September)

Event Time Altitude Azimuth Distance (km) Brightness Sun altitude
Rises 06:05:47 0° 171° (S) 2,830 8.8 0.6°
Reaches altitude 10° 06:08:29 10° 153° (SSE) 1,956 8.2 1.0°
Maximum altitude 06:11:35 19° 108° (ESE) 1,493 8.3 1.5°
Drops below altitude 10° 06:14:49 10° 63° (ENE) 2,060 10.9 2.0°
Sets 06:17:44 0° 46° (NE) 3,039 10.8 2.4°
